DW3800 Weather Reports


time (UTC)temp
C
wind
direction
speed
KPH
gust
KPH
rain 1hr
cm
rain 24hr
cm
rain mn
cm
humidity
%
barometer
mb
20260905132119 20 15 1.6 3.2 0.00 0.00 0.00 99 1020.2
20260905131614 20 288 0.0 1.6 0.00 0.00 0.00 99 1019.9
20260905131104 20 64 0.0 4.8 0.00 0.00 0.00 99 1019.8
20260905130603 20 162 0.0 0.0 0.00 0.00 0.00 99 1019.6
20260905130058 20 105 0.0 11.3 0.00 0.00 0.00 99 1019.4
20260905125557 20 336 1.6 4.8 0.00 0.00 0.00 99 1019.3
20260905125053 20 129 0.0 4.8 0.00 0.00 0.00 99 1019.2
20260905124550 19 314 4.8 4.8 0.00 0.00 0.00 99 1019.2
20260905124045 19 334 4.8 8.0 0.00 0.00 0.00 99 1019.1
20260905123540 19 306 3.2 4.8 0.00 0.00 0.00 99 1019.2
20260905123038 19 297 0.0 4.8 0.00 0.00 0.00 99 1019.2
20260905122537 19 92 1.6 8.0 0.00 0.00 0.00 99 1019.5
20260905122032 19 308 3.2 8.0 0.00 0.00 0.00 99 1019.3
20260905121531 19 50 1.6 4.8 0.00 0.00 0.00 99 1019.5
20260905121027 19 211 1.6 3.2 0.00 0.00 0.00 99 1019.4
20260905120520 19 87 0.0 3.2 0.00 0.00 0.00 99 1019.3
20260905120016 19 92 0.0 0.0 0.00 0.00 0.00 99 1019.4
20260905115515 19 334 0.0 4.8 0.00 0.00 0.00 99 1019.2
20260905115010 19 20 3.2 4.8 0.00 0.00 0.00 99 1019.0
20260905114509 19 70 0.0 1.6 0.00 0.00 0.00 99 1019.0
20260905114008 19 332 0.0 3.2 0.00 0.00 0.00 99 1019.0
20260905113504 19 302 4.8 4.8 0.00 0.00 0.00 99 1018.9
20260905112959 19 39 1.6 3.2 0.00 0.00 0.00 99 1019.2
20260905112454 19 331 1.6 3.2 0.00 0.00 0.00 99 1019.1
20260905111949 19 310 0.0 3.2 0.00 0.00 0.00 99 1019.0
20260905111444 19 323 3.2 4.8 0.00 0.00 0.00 99 1019.1
20260905110943 19 300 1.6 3.2 0.00 0.00 0.00 99 1018.8
20260905110443 19 281 1.6 3.2 0.00 0.00 0.00 99 1018.6
20260905105937 19 336 1.6 3.2 0.00 0.00 0.00 99 1018.6
20260905105432 19 24 0.0 3.2 0.00 0.00 0.00 99 1018.9
20260905104931 19 280 1.6 3.2 0.00 0.00 0.00 99 1018.6
20260905104427 19 330 0.0 1.6 0.00 0.00 0.00 99 1018.4
20260905103922 19 18 0.0 0.0 0.00 0.00 0.00 99 1018.6
20260905103417 19 15 0.0 0.0 0.00 0.00 0.00 99 1018.5
20260905102913 19 347 0.0 0.0 0.00 0.00 0.00 99 1018.5
20260905102409 19 11 0.0 0.0 0.00 0.00 0.00 99 1018.9
20260905101904 19 292 0.0 0.0 0.00 0.00 0.00 99 1018.9
20260905101402 19 148 0.0 0.0 0.00 0.00 0.00 99 1018.8
20260905100857 18 281 0.0 0.0 0.00 0.00 0.00 99 1018.4
20260905100353 18 280 0.0 0.0 0.00 0.00 0.00 99 1018.3
20260905095852 18 12 1.6 3.2 0.00 0.00 0.00 99 1018.1
20260905095347 18 306 0.0 0.0 0.00 0.00 0.00 99 1018.0
20260905094841 18 331 0.0 3.2 0.00 0.00 0.00 99 1017.9
20260905094337 18 333 0.0 3.2 0.00 0.00 0.00 99 1018.0
20260905093836 18 348 1.6 11.3 0.00 0.00 0.00 99 1017.9
20260905093332 18 18 0.0 4.8 0.00 0.00 0.00 99 1018.0
20260905092828 18 24 0.0 8.0 0.00 0.00 0.00 99 1018.0
20260905092327 18 347 0.0 8.0 0.00 0.00 0.00 99 1018.1
20260905091822 18 101 0.0 9.7 0.00 0.00 0.00 99 1018.3
20260905091322 18 22 0.0 4.8 0.00 0.00 0.00 99 1018.3
20260905090820 18 21 0.0 4.8 0.00 0.00 0.00 99 1018.3
20260905090317 18 342 4.8 11.3 0.00 0.00 0.00 99 1018.6
20260905085811 18 280 3.2 8.0 0.00 0.00 0.00 99 1018.4
20260905085310 18 43 0.0 9.7 0.00 0.00 0.00 99 1018.3
20260905084806 18 16 0.0 8.0 0.00 0.00 0.00 99 1018.3
20260905084305 18 39 1.6 8.0 0.00 0.00 0.00 99 1018.5
20260905083801 18 343 3.2 12.9 0.00 0.00 0.00 99 1018.4
20260905083256 18 13 0.0 1.6 0.00 0.00 0.00 99 1018.5
20260905082752 18 291 4.8 11.3 0.00 0.00 0.00 99 1018.8
20260905082248 18 63 1.6 4.8 0.00 0.00 0.00 99 1018.5
20260905081747 18 352 0.0 1.6 0.00 0.00 0.00 99 1018.6
20260905081243 18 94 0.0 9.7 0.00 0.00 0.00 99 1018.9
20260905080737 18 2 1.6 3.2 0.00 0.00 0.00 99 1018.8
20260905080237 18 40 0.0 1.6 0.00 0.00 0.00 99 1018.6
20260905075736 18 341 0.0 1.6 0.00 0.00 0.00 99 1018.6
20260905075235 18 8 0.0 3.2 0.00 0.00 0.00 99 1018.6
20260905074734 18 66 0.0 11.3 0.00 0.00 0.00 99 1018.8
20260905074230 18 37 1.6 4.8 0.00 0.00 0.00 99 1018.6
20260905073725 18 310 1.6 8.0 0.00 0.00 0.00 99 1018.8
20260905073221 18 308 0.0 1.6 0.00 0.00 0.00 99 1018.6
20260905072720 18 322 0.0 14.5 0.00 0.00 0.00 99 1019.0
20260905072216 18 330 0.0 4.8 0.00 0.00 0.00 99 1018.9
20260905071712 18 359 0.0 1.6 0.00 0.00 0.00 99 1018.8
20260905071208 18 13 4.8 9.7 0.00 0.00 0.00 99 1018.8
20260905070703 18 6 3.2 8.0 0.00 0.00 0.00 99 1018.4
20260905070159 18 36 1.6 9.7 0.00 0.00 0.00 99 1018.6
20260905065657 18 121 1.6 3.2 0.00 0.00 0.00 98 1018.9
20260905065151 18 2 3.2 8.0 0.00 0.00 0.00 98 1019.0
20260905064647 18 146 0.0 8.0 0.00 0.00 0.00 98 1019.0
20260905064143 18 223 0.0 11.3 0.00 0.00 0.00 98 1018.8
20260905063640 18 34 4.8 8.0 0.00 0.00 0.00 98 1018.9
20260905063138 18 302 4.8 8.0 0.00 0.00 0.00 98 1018.8
20260905062633 18 8 3.2 3.2 0.00 0.00 0.00 97 1018.8
20260905062132 18 315 1.6 8.0 0.00 0.00 0.00 97 1018.8
20260905061627 18 347 1.6 3.2 0.00 0.00 0.00 97 1018.6
20260905061126 19 68 0.0 0.0 0.00 0.00 0.00 97 1018.6
20260905060622 19 340 0.0 4.8 0.00 0.00 0.00 97 1018.4
20260905060119 19 339 0.0 1.6 0.00 0.00 0.00 97 1018.5
20260905055617 19 92 1.6 8.0 0.00 0.00 0.00 96 1018.5
20260905055112 19 354 0.0 11.3 0.00 0.00 0.00 96 1018.4
20260905054608 19 354 0.0 3.2 0.00 0.00 0.00 96 1018.3
20260905054103 19 293 0.0 3.2 0.00 0.00 0.00 96 1018.1
20260905053603 19 314 3.2 4.8 0.00 0.00 0.00 96 1018.3
20260905053058 20 12 0.0 9.7 0.00 0.00 0.00 95 1018.2
20260905052557 20 336 4.8 4.8 0.00 0.00 0.00 95 1018.2
20260905052052 20 218 0.0 8.0 0.00 0.00 0.00 95 1018.0
20260905051548 20 349 0.0 1.6 0.00 0.00 0.00 95 1017.9
20260905051044 20 278 1.6 9.7 0.00 0.00 0.00 95 1017.8
20260905050540 20 303 3.2 12.9 0.00 0.00 0.00 94 1018.2
20260905050037 20 331 0.0 1.6 0.00 0.00 0.00 94 1018.2
20260905045531 20 357 0.0 8.0 0.00 0.00 0.00 94 1018.0
20260905045027 20 331 0.0 3.2 0.00 0.00 0.00 94 1018.2
20260905044526 20 354 3.2 8.0 0.00 0.00 0.00 93 1018.1
20260905044021 20 355 1.6 9.7 0.00 0.00 0.00 93 1017.9
20260905043520 20 26 1.6 11.3 0.00 0.00 0.00 93 1018.1
20260905043016 20 359 0.0 4.8 0.00 0.00 0.00 93 1018.1
20260905042514 20 357 1.6 9.7 0.00 0.00 0.00 92 1018.2
20260905042010 20 357 4.8 8.0 0.00 0.00 0.00 92 1018.0
20260905041505 20 342 1.6 4.8 0.00 0.00 0.00 92 1017.9
20260905041001 21 50 0.0 8.0 0.00 0.00 0.00 92 1018.2
20260905040500 21 2 1.6 3.2 0.00 0.00 0.00 91 1018.2
20260905035959 21 344 1.6 3.2 0.00 0.00 0.00 91 1018.2
20260905035454 21 22 1.6 3.2 0.00 0.00 0.00 91 1018.2
20260905034952 21 356 1.6 4.8 0.00 0.00 0.00 90 1018.1
20260905034447 21 328 8.0 11.3 0.00 0.00 0.00 90 1018.1
20260905033945 21 1 4.8 11.3 0.00 0.00 0.00 90 1018.2
20260905033445 21 327 3.2 8.0 0.00 0.00 0.00 89 1018.1
20260905032940 21 262 1.6 11.3 0.00 0.00 0.00 89 1018.0
20260905032436 21 89 0.0 9.7 0.00 0.00 0.00 89 1018.0
20260905031930 21 330 1.6 3.2 0.00 0.00 0.00 88 1018.0
20260905031426 21 59 1.6 8.0 0.00 0.00 0.00 88 1018.0
20260905030921 22 280 3.2 4.8 0.00 0.00 0.00 88 1018.1
20260905030417 22 36 1.6 4.8 0.00 0.00 0.00 87 1018.1
20260905025915 22 77 0.0 9.7 0.00 0.00 0.00 87 1017.8
20260905025411 22 328 1.6 12.9 0.00 0.00 0.00 86 1017.8
20260905024908 22 101 4.8 11.3 0.00 0.00 0.00 86 1018.0
20260905024402 22 7 4.8 8.0 0.00 0.00 0.00 86 1017.8
20260905023858 22 10 1.6 11.3 0.00 0.00 0.00 85 1017.8
20260905023353 23 291 4.8 17.7 0.00 0.00 0.00 85 1017.7
20260905022852 23 3 1.6 11.3 0.00 0.00 0.00 85 1017.6
20260905022347 23 2 4.8 9.7 0.00 0.00 0.00 84 1017.7
20260905021842 23 336 3.2 11.3 0.00 0.00 0.00 84 1017.5
20260905021337 23 293 11.3 14.5 0.00 0.00 0.00 84 1017.6
20260905020832 23 322 4.8 14.5 0.00 0.00 0.00 83 1017.3
20260905020326 23 333 6.4 14.5 0.00 0.00 0.00 83 1017.3
20260905015826 24 0 1.6 11.3 0.00 0.00 0.00 83 1017.3
20260905015320 24 42 3.2 11.3 0.00 0.00 0.00 82 1017.3
20260905014819 24 34 0.0 8.0 0.00 0.00 0.00 83 1017.0
20260905014315 24 64 0.0 4.8 0.00 0.00 0.00 83 1017.3
20260905013810 24 322 0.0 3.2 0.00 0.00 0.00 83 1017.4
20260905013306 25 51 0.0 1.6 0.00 0.00 0.00 83 1017.2
20260905012801 25 146 0.0 1.6 0.00 0.00 0.00 82 1017.1
20260905012256 25 232 0.0 4.8 0.00 0.00 0.00 81 1017.0
20260905011753 25 183 0.0 4.8 0.00 0.00 0.00 80 1016.8
20260905011249 25 312 1.6 4.8 0.00 0.00 0.00 80 1016.6
20260905010743 25 24 1.6 4.8 0.00 0.00 0.00 81 1016.7
20260905010239 25 20 1.6 4.8 0.00 0.00 0.00 80 1016.9
20260905005736 25 290 4.8 4.8 0.00 0.00 0.00 79 1016.7
20260905005231 25 275 1.6 3.2 0.00 0.00 0.00 80 1016.5
20260905004730 25 203 0.0 0.0 0.00 0.00 0.00 79 1016.6
20260905004226 26 320 1.6 3.2 0.00 0.00 0.00 78 1016.8
20260905003725 26 307 0.0 1.6 0.00 0.00 0.00 78 1016.7
20260905003221 26 286 0.0 1.6 0.00 0.00 0.00 77 1016.7
20260905002717 26 301 1.6 9.7 0.00 0.00 0.00 76 1016.6
20260905002217 27 285 1.6 4.8 0.00 0.00 0.00 75 1016.6
20260905001712 27 350 1.6 4.8 0.00 0.00 0.00 74 1016.4
20260905001211 27 353 1.6 4.8 0.00 0.00 0.00 74 1016.3
20260905000706 27 24 3.2 8.0 0.00 0.00 0.00 74 1016.5
20260905000204 27 335 1.6 4.8 0.00 0.00 0.00 74 1016.4
20260904235702 27 359 3.2 8.0 0.00 0.00 0.00 75 1016.4
20260904235157 27 275 4.8 4.8 0.00 0.00 0.00 75 1016.4
20260904234652 27 353 1.6 4.8 0.00 0.00 0.00 75 1016.5
20260904234148 28 318 4.8 8.0 0.00 0.00 0.00 74 1016.5
20260904233643 27 264 1.6 3.2 0.00 0.00 0.00 75 1016.3
20260904233139 27 328 3.2 4.8 0.00 0.00 0.00 75 1016.4
20260904232635 28 330 4.8 8.0 0.00 0.00 0.00 75 1016.4
20260904232131 28 317 1.6 9.7 0.00 0.00 0.00 75 1016.2
20260904231626 28 152 1.6 4.8 0.00 0.00 0.00 75 1016.3
20260904231121 28 187 3.2 3.2 0.00 0.00 0.00 75 1016.1
20260904230621 28 248 4.8 9.7 0.00 0.00 0.00 75 1016.2
20260904230116 28 214 0.0 8.0 0.00 0.00 0.00 75 1016.3
20260904225613 28 19 3.2 4.8 0.00 0.00 0.00 75 1016.0
20260904225108 28 261 3.2 4.8 0.00 0.00 0.00 75 1016.0
20260904224603 28 91 3.2 11.3 0.00 0.00 0.00 75 1016.0
20260904224058 28 134 1.6 8.0 0.00 0.00 0.00 76 1015.9
20260904223557 29 126 1.6 4.8 0.00 0.00 0.00 76 1015.9
20260904223053 28 335 4.8 9.7 0.00 0.00 0.00 76 1016.1
20260904222549 29 257 3.2 8.0 0.00 0.00 0.00 75 1016.0
20260904222044 29 152 1.6 8.0 0.00 0.00 0.00 75 1015.7
20260904221538 29 227 4.8 8.0 0.00 0.00 0.00 74 1015.8
20260904221033 29 124 0.0 3.2 0.00 0.00 0.00 75 1015.5
20260904220533 29 110 1.6 9.7 0.00 0.00 0.00 76 1015.6
20260904220029 30 234 0.0 1.6 0.00 0.00 0.00 76 1015.5
20260904215528 30 275 3.2 4.8 0.00 0.00 0.00 74 1015.4
20260904215024 30 187 1.6 4.8 0.00 0.00 0.00 74 1015.6
20260904214520 30 85 3.2 8.0 0.00 0.00 0.00 74 1015.7
20260904214015 30 311 1.6 11.3 0.00 0.00 0.00 74 1015.4
20260904213512 30 215 1.6 4.8 0.00 0.00 0.00 74 1015.2
20260904213009 29 201 0.0 3.2 0.00 0.00 0.00 75 1015.5
20260904212503 29 109 0.0 8.0 0.00 0.00 0.00 74 1015.5
20260904211958 30 338 4.8 4.8 0.00 0.00 0.00 72 1015.5
20260904211452 30 318 4.8 8.0 0.00 0.00 0.00 74 1015.5
20260904210948 30 221 1.6 3.2 0.00 0.00 0.00 73 1015.5
20260904210447 30 135 1.6 9.7 0.00 0.00 0.00 75 1015.6
20260904205943 29 248 1.6 9.7 0.00 0.00 0.00 75 1015.6
20260904205438 29 217 3.2 8.0 0.00 0.00 0.00 75 1015.6
20260904204936 29 194 3.2 8.0 0.00 0.00 0.00 75 1015.6
20260904204430 29 287 3.2 4.8 0.00 0.00 0.00 76 1015.7
20260904203927 29 205 0.0 4.8 0.00 0.00 0.00 75 1015.7
20260904203423 28 217 1.6 4.8 0.00 0.00 0.00 76 1015.6
20260904202919 29 26 1.6 4.8 0.00 0.00 0.00 76 1015.5
20260904202415 29 214 1.6 3.2 0.00 0.00 0.00 76 1015.6
20260904201911 29 258 3.2 4.8 0.00 0.00 0.00 75 1015.5
20260904201405 29 226 3.2 8.0 0.00 0.00 0.00 76 1015.7
20260904200901 29 148 1.6 3.2 0.00 0.00 0.00 76 1015.4
20260904200359 28 200 1.6 3.2 0.00 0.00 0.00 77 1015.6
20260904195854 28 200 4.8 9.7 0.00 0.00 0.00 77 1015.7
20260904195352 28 335 4.8 8.0 0.00 0.00 0.00 77 1015.7
20260904194847 29 198 4.8 8.0 0.00 0.00 0.00 76 1015.6
20260904194346 29 231 1.6 3.2 0.00 0.00 0.00 77 1015.4
20260904193842 28 24 3.2 8.0 0.00 0.00 0.00 78 1015.7
20260904193337 27 172 0.0 8.0 0.00 0.00 0.00 81 1015.6
20260904192832 28 45 1.6 3.2 0.00 0.00 0.00 79 1015.7
20260904192327 28 317 4.8 12.9 0.00 0.00 0.00 80 1015.8
20260904191824 28 270 6.4 8.0 0.00 0.00 0.00 79 1015.9
20260904191321 27 208 1.6 9.7 0.00 0.00 0.00 81 1016.0
20260904190817 28 268 6.4 8.0 0.00 0.00 0.00 79 1015.8
20260904190312 28 170 1.6 12.9 0.00 0.00 0.00 81 1015.9
20260904185809 27 201 1.6 11.3 0.00 0.00 0.00 81 1015.9
20260904185306 27 110 0.0 4.8 0.00 0.00 0.00 82 1015.7
20260904184803 27 348 1.6 8.0 0.00 0.00 0.00 82 1015.9
20260904184258 27 340 1.6 3.2 0.00 0.00 0.00 83 1015.6
20260904183753 27 105 1.6 3.2 0.00 0.00 0.00 83 1015.8
20260904183248 27 200 1.6 12.9 0.00 0.00 0.00 84 1015.7
20260904182743 27 212 0.0 4.8 0.00 0.00 0.00 84 1015.7
20260904182238 27 179 3.2 9.7 0.00 0.00 0.00 84 1016.0
20260904181734 27 219 4.8 4.8 0.00 0.00 0.00 84 1015.9
20260904181234 27 276 6.4 11.3 0.00 0.00 0.00 83 1015.8
20260904180729 27 313 4.8 8.0 0.00 0.00 0.00 83 1015.7
20260904180224 27 31 4.8 4.8 0.00 0.00 0.00 83 1015.7
20260904175723 27 343 1.6 12.9 0.00 0.00 0.00 83 1015.7
20260904175222 28 351 4.8 8.0 0.00 0.00 0.00 81 1015.6
20260904174717 27 51 3.2 8.0 0.00 0.00 0.00 83 1015.5
20260904174213 27 312 3.2 8.0 0.00 0.00 0.00 83 1015.5
20260904173709 27 113 0.0 11.3 0.00 0.00 0.00 84 1015.2
20260904173203 27 192 6.4 11.3 0.00 0.00 0.00 83 1015.4
20260904172700 27 314 6.4 9.7 0.00 0.00 0.00 82 1015.2
20260904172159 27 190 4.8 9.7 0.00 0.00 0.00 82 1015.1
20260904171654 27 146 0.0 9.7 0.00 0.00 0.00 84 1015.2
20260904171149 27 342 11.3 14.5 0.00 0.00 0.00 83 1015.4
20260904170645 28 110 1.6 12.9 0.00 0.00 0.00 83 1015.1
20260904170141 28 250 1.6 9.7 0.00 0.00 0.00 82 1015.1
20260904165639 27 347 3.2 4.8 0.00 0.00 0.00 83 1015.4
20260904165134 27 327 4.8 4.8 0.00 0.00 0.00 83 1015.4
20260904164634 27 80 3.2 9.7 0.00 0.00 0.00 84 1015.2
20260904164129 28 73 1.6 3.2 0.00 0.00 0.00 82 1015.1
20260904163624 27 312 1.6 9.7 0.00 0.00 0.00 84 1015.0
20260904163119 27 207 4.8 8.0 0.00 0.00 0.00 84 1015.0
20260904162614 27 120 3.2 4.8 0.00 0.00 0.00 84 1015.0
20260904162109 27 337 1.6 8.0 0.00 0.00 0.00 84 1015.1
20260904161604 28 203 4.8 8.0 0.00 0.00 0.00 82 1015.0
20260904161059 28 236 4.8 9.7 0.00 0.00 0.00 82 1014.7
20260904160555 28 125 1.6 4.8 0.00 0.00 0.00 82 1014.7
20260904160050 28 121 0.0 3.2 0.00 0.00 0.00 81 1014.6
20260904155549 28 156 1.6 4.8 0.00 0.00 0.00 81 1014.7
20260904155044 28 105 0.0 8.0 0.00 0.00 0.00 80 1014.8
20260904154538 28 306 1.6 3.2 0.00 0.00 0.00 81 1014.5
20260904154033 28 134 1.6 9.7 0.00 0.00 0.00 82 1014.4
20260904153532 28 181 3.2 4.8 0.00 0.00 0.00 82 1014.5
20260904153029 28 170 6.4 8.0 0.00 0.00 0.00 82 1014.5
20260904152524 28 84 1.6 4.8 0.00 0.00 0.00 81 1014.6
20260904152020 28 101 0.0 1.6 0.00 0.00 0.00 81 1014.3
20260904151514 28 118 0.0 0.0 0.00 0.00 0.00 81 1014.4
20260904151014 28 89 0.0 3.2 0.00 0.00 0.00 83 1014.4
20260904150514 28 66 1.6 1.6 0.00 0.00 0.00 82 1013.9
20260904150009 28 95 0.0 3.2 0.00 0.00 0.00 83 1014.1
20260904145503 27 83 1.6 1.6 0.00 0.00 0.00 84 1013.8
20260904144958 27 100 1.6 3.2 0.00 0.00 0.00 85 1014.1
20260904144454 27 61 0.0 1.6 0.00 0.00 0.00 85 1014.1
20260904143950 26 83 0.0 1.6 0.00 0.00 0.00 87 1014.2
20260904143446 26 102 0.0 3.2 0.00 0.00 0.00 87 1014.1
20260904142943 26 105 0.0 1.6 0.00 0.00 0.00 88 1014.1
20260904142439 26 344 3.2 3.2 0.00 0.00 0.00 86 1014.1
20260904141938 26 91 0.0 3.2 0.00 0.00 0.00 87 1014.1
20260904141433 26 93 0.0 4.8 0.00 0.00 0.00 87 1014.0
20260904140931 26 86 0.0 0.0 0.00 0.00 0.00 88 1014.1
20260904140430 25 74 0.0 0.0 0.00 0.00 0.00 90 1014.2
20260904135929 25 14 0.0 1.6 0.00 0.00 0.00 90 1014.3
20260904135429 25 352 1.6 1.6 0.00 0.00 0.00 89 1014.2
20260904134925 26 20 3.2 3.2 0.00 0.00 0.00 88 1014.5
20260904134425 25 83 0.0 0.0 0.00 0.00 0.00 93 1014.1
20260904133920 24 92 0.0 1.6 0.00 0.00 0.00 95 1014.2
20260904133414 23 104 1.6 3.2 0.00 0.00 0.00 97 1014.3
20260904132910 23 95 0.0 1.6 0.00 0.00 0.00 99 1014.5
20260904132405 23 95 0.0 0.0 0.00 0.00 0.00 99 1014.2